EW2310 Weather Reports


time (UTC)temp
C
wind
direction
speed
KPH
gust
KPH
rain 1hr
cm
rain 24hr
cm
rain mn
cm
humidity
%
barometer
mb
20260507083544 20 329 8.0 9.7 0.00 0.13 0.00 68 1012.2
20260507083044 20 309 1.6 4.8 0.00 0.13 0.00 69 1012.3
20260507082544 20 308 1.6 8.0 0.00 0.13 0.00 69 1012.2
20260507082044 19 304 0.0 9.7 0.00 0.13 0.00 70 1012.1
20260507081544 19 355 1.6 9.7 0.00 0.13 0.00 68 1012.2
20260507081047 20 271 4.8 4.8 0.00 0.13 0.00 70 1012.2
20260507080547 19 190 3.2 4.8 0.00 0.13 0.00 71 1012.1
20260507080044 19 194 1.6 9.7 0.00 0.13 0.00 71 1012.2
20260507075544 18 153 3.2 8.0 0.00 0.13 0.00 71 1012.2
20260507075044 18 152 4.8 6.4 0.00 0.13 0.00 71 1012.2
20260507074544 18 146 1.6 11.3 0.00 0.13 0.00 70 1012.2
20260507074044 18 212 0.0 3.2 0.00 0.13 0.00 72 1012.2
20260507073544 18 213 0.0 6.4 0.00 0.13 0.00 71 1012.3
20260507073044 18 188 3.2 4.8 0.00 0.13 0.00 72 1012.3
20260507072547 18 189 1.6 4.8 0.00 0.13 0.00 72 1012.4
20260507072044 18 190 0.0 12.9 0.00 0.13 0.00 73 1012.4
20260507071547 18 171 1.6 11.3 0.00 0.13 0.00 72 1012.5
20260507071044 18 163 0.0 3.2 0.00 0.13 0.00 75 1012.5
20260507070544 18 163 1.6 8.0 0.00 0.13 0.00 75 1012.6
20260507070044 18 162 0.0 9.7 0.00 0.13 0.00 76 1012.6
20260507065544 17 138 1.6 11.3 0.00 0.13 0.00 77 1012.6
20260507065044 17 174 3.2 4.8 0.00 0.13 0.00 78 1012.7
20260507064547 17 174 3.2 12.9 0.00 0.13 0.00 77 1012.7
20260507064048 17 152 0.0 9.7 0.00 0.13 0.00 79 1012.6
20260507063544 17 158 3.2 11.3 0.00 0.13 0.00 78 1012.4
20260507063044 17 150 0.0 8.0 0.00 0.13 0.00 79 1012.3
20260507062544 17 162 6.4 9.7 0.00 0.13 0.00 80 1012.3
20260507062044 17 150 4.8 12.9 0.00 0.13 0.00 80 1012.2
20260507061544 16 136 0.0 6.4 0.00 0.13 0.00 81 1012.2
20260507061044 16 140 3.2 8.0 0.00 0.13 0.00 81 1012.1
20260507060544 16 128 3.2 6.4 0.00 0.13 0.00 82 1012.1
20260507060047 16 117 6.4 6.4 0.00 0.13 0.00 82 1012.1
20260507055544 16 140 3.2 4.8 0.00 0.10 0.00 83 1012.2
20260507055047 15 140 0.0 6.4 0.00 0.10 0.00 83 1012.1
20260507054544 15 141 1.6 8.0 0.00 0.10 0.00 82 1012.0
20260507054044 15 116 1.6 4.8 0.00 0.10 0.00 82 1012.0
20260507053544 15 115 1.6 6.4 0.00 0.10 0.00 82 1012.1
20260507053044 15 78 4.8 6.4 0.00 0.10 0.00 83 1012.1
20260507052544 15 78 0.0 4.8 0.00 0.10 0.00 84 1012.0
20260507052047 15 78 3.2 6.4 0.00 0.10 0.00 84 1012.0
20260507051544 15 77 3.2 8.0 0.00 0.10 0.00 84 1012.0
20260507051044 15 75 1.6 4.8 0.00 0.10 0.00 84 1012.0
20260507050544 15 75 4.8 6.4 0.00 0.10 0.00 84 1012.0
20260507050047 15 75 4.8 4.8 0.00 0.10 0.00 85 1012.0
20260507045544 15 74 3.2 6.4 0.00 0.10 0.00 85 1011.9
20260507045044 14 74 1.6 3.2 0.00 0.10 0.00 85 1011.9
20260507044544 14 74 3.2 4.8 0.00 0.13 0.00 85 1011.9
20260507044044 14 74 1.6 3.2 0.00 0.13 0.00 85 1011.9
20260507043544 14 74 1.6 4.8 0.00 0.13 0.00 85 1011.9
20260507043044 14 74 1.6 4.8 0.00 0.13 0.00 85 1011.8
20260507042547 14 74 3.2 4.8 0.00 0.13 0.00 85 1011.8
20260507042047 14 74 1.6 4.8 0.00 0.13 0.00 85 1011.8
20260507041544 14 74 4.8 8.0 0.00 0.13 0.00 85 1011.8
20260507041044 14 67 6.4 8.0 0.00 0.13 0.00 85 1011.7
20260507040544 14 65 3.2 4.8 0.00 0.13 0.00 85 1011.7
20260507040044 14 65 4.8 6.4 0.00 0.13 0.00 85 1011.7
20260507035544 15 65 1.6 6.4 0.00 0.13 0.00 85 1011.6
20260507035044 15 65 3.2 8.0 0.00 0.13 0.00 85 1011.7
20260507034544 15 63 4.8 6.4 0.00 0.13 0.00 84 1011.7
20260507034044 15 60 3.2 3.2 0.00 0.13 0.00 84 1011.8
20260507033544 15 60 3.2 6.4 0.00 0.13 0.00 84 1011.8
20260507033044 15 60 0.0 4.8 0.00 0.13 0.00 85 1011.9
20260507032547 14 60 1.6 6.4 0.00 0.13 0.00 85 1011.8
20260507032047 14 36 6.4 6.4 0.00 0.13 0.00 85 1011.8
20260507031544 14 346 3.2 4.8 0.00 0.13 0.00 85 1011.9
20260507031044 14 346 0.0 1.6 0.00 0.13 0.00 85 1011.9
20260507030544 14 346 0.0 3.2 0.00 0.13 0.00 86 1011.8
20260507030044 14 346 1.6 3.2 0.00 0.13 0.00 86 1011.8
20260507025544 14 346 1.6 3.2 0.00 0.13 0.00 86 1011.8
20260507025044 14 346 1.6 4.8 0.00 0.13 0.00 86 1011.8
20260507024547 14 346 3.2 4.8 0.00 0.13 0.00 86 1011.8
20260507024044 14 346 1.6 8.0 0.00 0.13 0.00 86 1011.7
20260507023544 14 345 6.4 6.4 0.00 0.13 0.00 87 1011.8
20260507023044 14 345 3.2 8.0 0.00 0.13 0.00 87 1011.8
20260507022544 14 344 3.2 6.4 0.00 0.13 0.00 87 1011.8
20260507022047 14 340 6.4 8.0 0.00 0.13 0.00 88 1011.8
20260507021545 14 331 4.8 8.0 0.00 0.13 0.00 88 1011.8
20260507021048 14 341 4.8 8.0 0.00 0.13 0.00 88 1011.8
20260507020544 14 340 8.0 8.0 0.00 0.13 0.00 88 1011.8
20260507020044 14 335 6.4 9.7 0.00 0.13 0.00 88 1011.8
20260507015544 14 332 4.8 6.4 0.00 0.13 0.00 88 1011.8
20260507015047 14 331 1.6 4.8 0.00 0.13 0.00 88 1011.8
20260507014544 14 331 0.0 4.8 0.00 0.13 0.00 88 1011.7
20260507014044 14 345 3.2 4.8 0.00 0.13 0.00 88 1011.8
20260507013547 14 104 1.6 3.2 0.00 0.13 0.00 88 1011.7
20260507013047 14 105 0.0 4.8 0.00 0.13 0.00 88 1011.7
20260507012544 14 105 0.0 3.2 0.00 0.13 0.00 89 1011.7
20260507012044 14 105 0.0 4.8 0.00 0.13 0.00 89 1011.7
20260507011544 13 105 1.6 3.2 0.00 0.13 0.00 89 1011.7
20260507011044 13 108 0.0 3.2 0.00 0.13 0.00 90 1011.6
20260507010547 13 108 0.0 4.8 0.00 0.13 0.00 90 1011.5
20260507010044 13 108 1.6 6.4 0.00 0.13 0.00 90 1011.6
20260507005544 13 108 4.8 9.7 0.00 0.13 0.00 90 1011.7
20260507005047 13 108 1.6 4.8 0.00 0.13 0.00 90 1011.7
20260507004544 13 107 3.2 6.4 0.00 0.13 0.00 91 1011.7
20260507004044 13 103 1.6 6.4 0.00 0.13 0.00 91 1011.7
20260507003547 13 91 3.2 6.4 0.00 0.13 0.00 91 1011.8
20260507003044 13 111 6.4 9.7 0.00 0.13 0.00 90 1011.8
20260507002544 13 87 0.0 9.7 0.00 0.13 0.00 91 1011.9
20260507002044 13 103 1.6 11.3 0.00 0.13 0.00 91 1011.9
20260507001544 13 88 4.8 12.9 0.00 0.13 0.00 91 1011.8
20260507001044 13 138 4.8 16.1 0.00 0.13 0.00 91 1011.8
20260507000544 13 144 8.0 11.3 0.00 0.13 0.00 91 1011.8
20260507000044 13 148 6.4 16.1 0.03 0.13 0.00 91 1011.9
20260506235544 13 81 11.3 16.1 0.03 0.13 0.00 91 1011.9
20260506235044 14 135 4.8 14.5 0.05 0.13 0.00 91 1011.9
20260506234544 14 95 9.7 16.1 0.05 0.13 0.00 91 1012.0
20260506234044 14 113 4.8 12.9 0.08 0.13 0.00 91 1012.0
20260506233544 14 133 8.0 14.5 0.08 0.13 0.00 91 1012.1
20260506233044 14 154 6.4 17.7 0.08 0.13 0.00 90 1012.2
20260506232544 14 213 9.7 19.3 0.08 0.13 0.00 90 1012.2
20260506232044 14 146 16.1 19.3 0.08 0.13 0.00 90 1012.2
20260506231544 14 140 14.5 22.5 0.08 0.10 0.00 90 1012.1
20260506231044 14 154 12.9 22.5 0.08 0.10 0.00 90 1012.1
20260506230544 14 146 16.1 22.5 0.08 0.10 0.00 90 1012.1
20260506230044 15 157 14.5 20.9 0.05 0.08 0.00 90 1012.1
20260506225544 15 160 12.9 25.7 0.05 0.08 0.00 90 1012.1
20260506225044 15 182 12.9 17.7 0.03 0.08 0.00 89 1012.1
20260506224547 15 154 9.7 22.5 0.03 0.08 0.00 88 1012.1
20260506224044 15 166 16.1 25.7 0.00 0.05 0.00 87 1012.1
20260506223544 15 176 14.5 20.9 0.00 0.05 0.00 86 1012.1
20260506223047 15 146 17.7 16.1 0.00 0.03 0.00 86 1012.1
20260506222547 15 133 12.9 17.7 0.00 0.03 0.00 86 1012.0
20260506222044 15 169 3.2 16.1 0.00 0.03 0.00 85 1011.9
20260506221547 15 161 11.3 16.1 0.00 0.03 0.00 85 1011.9
20260506221044 15 151 9.7 14.5 0.00 0.03 0.00 85 1011.9
20260506220544 15 144 9.7 17.7 0.00 0.03 0.00 84 1012.0
20260506220044 15 155 9.7 17.7 0.00 0.03 0.00 84 1011.9
20260506215544 15 161 8.0 16.1 0.00 0.03 0.00 84 1011.9
20260506215047 15 153 4.8 17.7 0.00 0.03 0.00 84 1012.0
20260506214547 15 163 8.0 16.1 0.00 0.03 0.00 85 1012.1
20260506214044 15 147 9.7 16.1 0.00 0.03 0.00 85 1012.1
20260506213547 15 142 9.7 17.7 0.00 0.03 0.00 85 1012.2
20260506213044 15 161 8.0 14.5 0.00 0.03 0.00 85 1012.3
20260506212544 15 151 9.7 14.5 0.00 0.03 0.00 85 1012.2
20260506212044 15 137 11.3 16.1 0.00 0.03 0.00 85 1012.2
20260506211544 15 155 12.9 14.5 0.00 0.03 0.00 85 1012.1
20260506211047 15 140 14.5 14.5 0.00 0.03 0.00 85 1012.2
20260506210547 15 155 4.8 14.5 0.00 0.03 0.00 86 1012.3
20260506210044 15 153 4.8 12.9 0.00 0.03 0.00 86 1012.3
20260506205547 15 155 9.7 11.3 0.00 0.03 0.00 86 1012.3
20260506205044 15 158 8.0 9.7 0.00 0.03 0.00 86 1012.2
20260506204544 15 153 4.8 11.3 0.00 0.03 0.00 86 1012.3
20260506204044 15 158 3.2 9.7 0.00 0.03 0.00 86 1012.2
20260506203544 15 145 9.7 12.9 0.00 0.03 0.00 86 1012.2
20260506203044 15 154 9.7 11.3 0.00 0.03 0.00 85 1012.2
20260506202544 15 163 8.0 12.9 0.00 0.03 0.00 85 1012.3
20260506202044 16 137 6.4 14.5 0.00 0.03 0.00 85 1012.3
20260506201544 15 167 6.4 12.9 0.00 0.03 0.00 85 1012.3
20260506201044 16 163 8.0 14.5 0.00 0.03 0.00 85 1012.3
20260506200547 16 159 11.3 11.3 0.00 0.03 0.00 85 1012.2
20260506200044 16 146 6.4 11.3 0.00 0.03 0.00 84 1012.2
20260506195544 16 138 6.4 12.9 0.00 0.03 0.00 84 1012.2
20260506195044 16 150 6.4 12.9 0.00 0.00 0.00 83 1012.2
20260506194544 16 142 9.7 14.5 0.00 0.00 0.00 82 1012.3
20260506194044 16 146 4.8 14.5 0.00 0.00 0.00 81 1012.3
20260506193547 16 145 6.4 12.9 0.00 0.00 0.00 81 1012.3
20260506193047 16 143 6.4 14.5 0.00 0.00 0.00 80 1012.2
20260506192544 16 128 11.3 16.1 0.00 0.00 0.00 80 1012.2
20260506192044 16 148 9.7 12.9 0.00 0.00 0.00 80 1012.2
20260506191547 16 140 11.3 16.1 0.00 0.00 0.00 80 1012.1
20260506191047 16 147 12.9 17.7 0.00 0.00 0.00 80 1012.0
20260506190544 16 161 8.0 17.7 0.00 0.00 0.00 79 1011.9
20260506190044 17 148 14.5 17.7 0.00 0.00 0.00 79 1011.9
20260506185544 17 157 4.8 16.1 0.00 0.00 0.00 79 1011.8
20260506185044 17 140 11.3 17.7 0.00 0.00 0.00 78 1011.7
20260506184544 17 164 9.7 14.5 0.00 0.00 0.00 77 1011.7
20260506184044 17 160 9.7 16.1 0.00 0.00 0.00 76 1011.6
20260506183544 17 165 8.0 19.3 0.00 0.00 0.00 75 1011.6
20260506183044 17 151 12.9 17.7 0.00 0.00 0.00 74 1011.6
20260506182544 17 163 8.0 16.1 0.00 0.00 0.00 74 1011.6
20260506182044 17 144 12.9 17.7 0.00 0.00 0.00 74 1011.6
20260506181544 17 174 9.7 16.1 0.00 0.00 0.00 74 1011.6
20260506181044 17 138 11.3 16.1 0.00 0.00 0.00 74 1011.6
20260506180544 17 154 11.3 19.3 0.00 0.00 0.00 75 1011.6
20260506180044 17 163 9.7 16.1 0.00 0.00 0.00 75 1011.5
20260506175544 17 139 11.3 17.7 0.00 0.00 0.00 75 1011.5
20260506175044 17 159 11.3 14.5 0.00 0.00 0.00 75 1011.5
20260506174544 17 156 9.7 16.1 0.00 0.00 0.00 74 1011.6
20260506174044 17 169 6.4 14.5 0.00 0.00 0.00 75 1011.6
20260506173544 17 155 11.3 16.1 0.00 0.00 0.00 74 1011.5
20260506173044 17 153 6.4 12.9 0.00 0.00 0.00 74 1011.5
20260506172544 17 168 8.0 14.5 0.00 0.00 0.00 74 1011.5
20260506172047 17 156 8.0 17.7 0.00 0.00 0.00 74 1011.5
20260506171544 17 185 6.4 17.7 0.00 0.00 0.00 74 1011.5
20260506171044 17 156 9.7 17.7 0.00 0.00 0.00 74 1011.5
20260506170544 17 163 17.7 20.9 0.00 0.00 0.00 74 1011.6
20260506170044 17 154 17.7 17.7 0.00 0.00 0.00 73 1011.6
20260506165547 17 187 9.7 19.3 0.00 0.00 0.00 72 1011.6
20260506165044 17 152 14.5 19.3 0.00 0.00 0.00 72 1011.7
20260506164544 18 163 11.3 19.3 0.00 0.00 0.00 72 1011.7
20260506164047 17 157 8.0 20.9 0.00 0.00 0.00 73 1011.7
20260506163547 18 162 9.7 22.5 0.00 0.00 0.00 72 1011.7
20260506163044 18 165 9.7 20.9 0.00 0.00 0.00 73 1011.7
20260506162544 18 184 8.0 19.3 0.00 0.00 0.00 73 1011.7
20260506162044 18 148 9.7 17.7 0.00 0.00 0.00 73 1011.8
20260506161544 18 160 11.3 14.5 0.00 0.00 0.00 73 1011.8
20260506161044 18 150 12.9 20.9 0.00 0.00 0.00 73 1011.7
20260506160544 18 140 17.7 20.9 0.00 0.00 0.00 72 1011.7
20260506160044 18 163 16.1 19.3 0.00 0.00 0.00 73 1011.7
20260506155544 18 150 9.7 24.1 0.00 0.00 0.00 74 1011.5
20260506155044 18 174 12.9 24.1 0.00 0.00 0.00 74 1011.6
20260506154544 18 186 9.7 17.7 0.00 0.00 0.00 74 1011.8
20260506154044 18 162 11.3 16.1 0.00 0.00 0.00 74 1011.8
20260506153547 18 159 9.7 16.1 0.00 0.00 0.00 74 1011.9
20260506153044 18 193 1.6 14.5 0.00 0.00 0.00 74 1011.8
20260506152544 18 165 8.0 19.3 0.00 0.00 0.00 73 1011.8
20260506152044 18 161 9.7 11.3 0.00 0.00 0.00 73 1011.8
20260506151547 18 157 8.0 14.5 0.00 0.00 0.00 73 1011.8
20260506151047 18 172 8.0 16.1 0.00 0.00 0.00 73 1011.7
20260506150544 18 177 6.4 17.7 0.00 0.00 0.00 73 1011.7
20260506150044 18 164 8.0 19.3 0.00 0.00 0.00 73 1011.7
20260506145544 18 157 14.5 25.7 0.00 0.00 0.00 72 1011.7
20260506145044 18 152 11.3 24.1 0.00 0.00 0.00 72 1011.8
20260506144544 18 158 11.3 17.7 0.00 0.00 0.00 73 1011.8
20260506144044 18 238 9.7 20.9 0.00 0.00 0.00 72 1011.8
20260506143544 18 150 19.3 22.5 0.00 0.00 0.00 71 1011.8
20260506143044 18 167 12.9 20.9 0.00 0.00 0.00 72 1011.7
20260506142544 18 170 6.4 25.7 0.00 0.00 0.00 72 1011.7
20260506142044 18 153 16.1 25.7 0.00 0.00 0.00 72 1011.8
20260506141547 18 157 17.7 24.1 0.00 0.00 0.00 71 1011.9
20260506141044 18 155 20.9 25.7 0.00 0.00 0.00 71 1011.8
20260506140544 18 186 19.3 24.1 0.00 0.00 0.00 71 1011.9
20260506140044 18 144 19.3 25.7 0.00 0.00 0.00 72 1011.8
20260506135544 18 153 19.3 25.7 0.00 0.00 0.00 71 1011.8
20260506135044 19 167 16.1 20.9 0.00 0.00 0.00 71 1011.9
20260506134547 18 145 17.7 24.1 0.00 0.00 0.00 70 1011.9
20260506134044 19 170 17.7 24.1 0.00 0.00 0.00 69 1012.0
20260506133544 19 166 8.0 19.3 0.00 0.00 0.00 70 1012.0
20260506133044 19 146 9.7 20.9 0.00 0.00 0.00 69 1012.1
20260506132544 18 178 8.0 24.1 0.00 0.00 0.00 68 1012.2
20260506132044 19 155 17.7 24.1 0.00 0.00 0.00 68 1012.1
20260506131544 18 144 17.7 19.3 0.00 0.00 0.00 68 1012.3
20260506131044 19 174 9.7 19.3 0.00 0.00 0.00 68 1012.3
20260506130544 19 167 14.5 22.5 0.00 0.00 0.00 68 1012.2
20260506130044 19 163 11.3 16.1 0.00 0.00 0.00 68 1012.2
20260506125544 19 164 6.4 27.4 0.00 0.00 0.00 67 1012.2
20260506125044 19 153 14.5 27.4 0.00 0.00 0.00 66 1012.1
20260506124544 19 159 12.9 24.1 0.00 0.00 0.00 66 1012.1
20260506124044 19 149 20.9 27.4 0.00 0.00 0.00 67 1012.1
20260506123544 19 187 8.0 20.9 0.00 0.00 0.00 67 1012.1
20260506123044 19 167 6.4 22.5 0.00 0.00 0.00 67 1012.1
20260506122544 20 215 8.0 25.7 0.00 0.00 0.00 67 1012.1
20260506122044 20 185 4.8 20.9 0.00 0.00 0.00 64 1012.1
20260506121544 20 190 4.8 27.4 0.00 0.00 0.00 63 1012.0
20260506121044 20 262 11.3 27.4 0.00 0.00 0.00 61 1012.0
20260506120544 20 141 8.0 35.4 0.00 0.00 0.00 65 1012.1
20260506120044 20 214 8.0 30.6 0.00 0.00 0.00 64 1012.0
20260506115544 20 198 12.9 22.5 0.00 0.00 0.00 63 1012.0
20260506115044 20 197 4.8 29.0 0.00 0.00 0.00 63 1012.1
20260506114547 20 171 9.7 30.6 0.00 0.00 0.00 61 1012.1
20260506114044 20 163 20.9 30.6 0.00 0.00 0.00 62 1012.0
20260506113544 20 178 14.5 25.7 0.00 0.00 0.00 61 1012.1
20260506113044 20 189 8.0 27.4 0.00 0.00 0.00 62 1012.0
20260506112547 20 167 19.3 27.4 0.00 0.00 0.00 63 1012.1
20260506112044 20 142 20.9 25.7 0.00 0.00 0.00 63 1012.0
20260506111544 20 163 17.7 29.0 0.00 0.00 0.00 63 1012.1
20260506111044 20 177 8.0 24.1 0.00 0.00 0.00 64 1012.1
20260506110544 20 244 12.9 24.1 0.00 0.00 0.00 63 1012.1
20260506110044 20 168 17.7 22.5 0.00 0.00 0.00 63 1012.1
20260506105544 20 151 17.7 17.7 0.00 0.00 0.00 61 1012.2
20260506105044 20 140 11.3 22.5 0.00 0.00 0.00 60 1012.2
20260506104547 20 163 16.1 29.0 0.00 0.00 0.00 59 1012.0
20260506104044 20 155 20.9 20.9 0.00 0.00 0.00 59 1012.1
20260506103544 20 175 6.4 25.7 0.00 0.00 0.00 61 1012.2
20260506103044 20 172 16.1 30.6 0.00 0.00 0.00 60 1012.1
20260506102544 20 171 24.1 29.0 0.00 0.00 0.00 60 1012.1
20260506102044 20 177 11.3 25.7 0.00 0.00 0.00 60 1012.1
20260506101544 20 163 19.3 37.0 0.00 0.00 0.00 60 1012.0
20260506101044 20 159 16.1 35.4 0.00 0.00 0.00 60 1012.0
20260506100544 20 148 20.9 35.4 0.00 0.00 0.00 59 1011.8
20260506100044 20 229 12.9 35.4 0.00 0.00 0.00 58 1012.0
20260506095544 20 170 11.3 33.8 0.00 0.00 0.00 58 1012.0
20260506095044 19 151 20.9 33.8 0.00 0.00 0.00 54 1012.1
20260506094544 19 146 24.1 33.8 0.00 0.00 0.00 56 1012.1
20260506094047 19 153 17.7 32.2 0.00 0.00 0.00 61 1012.1
20260506093544 19 167 8.0 25.7 0.00 0.00 0.00 62 1012.0
20260506093044 18 152 11.3 33.8 0.00 0.00 0.00 64 1012.0
20260506092547 19 189 12.9 32.2 0.00 0.00 0.00 63 1011.9
20260506092044 19 182 12.9 25.7 0.00 0.00 0.00 63 1011.9
20260506091547 18 158 16.1 33.8 0.00 0.00 0.00 64 1011.9
20260506091044 18 125 19.3 33.8 0.00 0.00 0.00 63 1011.8
20260506090547 18 153 22.5 37.0 0.00 0.00 0.00 65 1011.8
20260506090044 18 161 24.1 37.0 0.00 0.00 0.00 67 1011.9
20260506085547 17 154 16.1 30.6 0.00 0.00 0.00 67 1011.9
20260506085044 17 146 14.5 24.1 0.00 0.00 0.00 68 1011.9
20260506084547 17 142 14.5 30.6 0.00 0.00 0.00 68 1011.8
20260506084044 17 148 17.7 32.2 0.00 0.00 0.00 69 1011.8